DW2959 Murcia ES current weather conditions

sailwx.info

Wind from 090

Air temperature 17.8° C
Dewpoint 10.4° C

Last reported at 2016-May-06 19:34 UTC.
Time now 2016-May-06 20:43 UTC

Location: N 38°00' W 001°02'.
View on Google Maps.

See reports from other nearby stations

  
Tides and Currents Weather Stations Pressure Air Temp Water Temp Dewpoint Dewpoint Depression Visibility Wind Speed Wind Dir Waves Ship Positions
date/time (UTC)wind fromknots sea level pressurealtimeterstation pressurevisibilityair tempwater tempwave heightnotes
2016-May-06 19:34 090 17.8
2016-May-06 19:19 088 18.3
2016-May-06 19:04 122 17.8
2016-May-06 18:49 133 0 gusting 6 18.3
2016-May-06 18:34 122 18.3
2016-May-06 18:17 157 2 gusting 5 18.3
2016-May-06 18:02 113 2 gusting 9 18.9
2016-May-06 17:47 134 0 gusting 7 18.9
2016-May-06 17:32 140 3 gusting 9 19.4
2016-May-06 17:17 107 5 gusting 11 19.4
2016-May-06 17:02 095 3 gusting 11 20.0
2016-May-06 16:47 102 6 gusting 11 20.0
2016-May-06 16:32 100 2 gusting 9 20.0
2016-May-06 16:18 153 2 gusting 8 20.6
2016-May-06 16:02 105 0 gusting 14 20.6
2016-May-06 15:47 074 6 gusting 12 21.1
2016-May-06 15:32 088 6 gusting 12 21.1
2016-May-06 15:17 067 3 gusting 11 21.1
2016-May-06 15:02 080 3 gusting 8 21.1
2016-May-06 14:47 101 3 gusting 12 21.1
2016-May-06 14:32 094 2 gusting 10 21.1
2016-May-06 14:20 084 6 gusting 12 21.1
2016-May-06 14:02 051 2 gusting 10 21.1
2016-May-06 13:47 089 1 gusting 9 20.6
2016-May-06 13:31 060 4 gusting 9 21.1
2016-May-06 13:16 075 5 gusting 8 20.6
2016-May-06 13:00 094 3 gusting 9 20.6
2016-May-06 12:46 096 3 gusting 11 21.1
2016-May-06 12:30 087 5 gusting 11 21.1
2016-May-06 12:15 047 5 gusting 12 20.6
2016-May-06 12:00 098 20.6
2016-May-06 11:45 109 1 gusting 6 20.6
2016-May-06 11:30 079 1 gusting 10 20.0
2016-May-06 11:15 103 0 gusting 5 20.6
2016-May-06 11:00 159 3 gusting 8 20.0
2016-May-06 10:45 094 4 gusting 8 20.0
2016-May-06 10:29 076 4 gusting 10 20.0
2016-May-06 10:14 055 2 gusting 6 19.4
2016-May-06 10:00 103 18.9
2016-May-06 09:45 009 0 gusting 3 18.9
2016-May-06 09:30 355 1 gusting 3 17.8
2016-May-06 09:15 305 0 gusting 3 17.2
2016-May-06 08:44 267 16.7
2016-May-06 08:29 267 16.1
2016-May-06 08:14 266 0 gusting 2 15.6
2016-May-06 08:02 265 14.4
2016-May-06 07:44 261 13.9
2016-May-06 07:29 264 13.3
2016-May-06 07:14 223 1 gusting 6 12.8
2016-May-06 06:59 211 3 gusting 9 12.2
2016-May-06 06:44 266 2 gusting 7 11.1
2016-May-06 06:28 092 0 gusting 3 10.6
2016-May-06 06:12 091 10.6
2016-May-06 05:57 091 10.6
2016-May-06 05:43 091 10.0
2016-May-06 05:28
2016-May-06 05:13
2016-May-06 04:57
2016-May-06 04:43
2016-May-06 04:27
2016-May-06 04:11
2016-May-06 03:56
2016-May-06 03:41
2016-May-06 03:27
2016-May-06 03:12
2016-May-06 02:57
2016-May-06 02:41 091 9.4
2016-May-06 02:26 091 10.0
2016-May-06 02:11 091 10.0
2016-May-06 01:56 091 10.0
2016-May-06 01:41 091 10.6
2016-May-06 01:26 091 10.6
2016-May-06 01:11 091 10.6
2016-May-06 00:56 091 11.1
2016-May-06 00:43 091 11.1
2016-May-06 00:26 091 11.1
2016-May-06 00:10 091 11.7
2016-May-05 23:55 091 11.7
2016-May-05 23:39 091 12.2
2016-May-05 23:25 091 12.2
2016-May-05 23:09 091 12.2
2016-May-05 22:54 091 12.2
2016-May-05 22:40 091 12.2
2016-May-05 22:25 091 12.8
2016-May-05 22:10 091 13.3
2016-May-05 21:54 091 13.3
2016-May-05 21:39 091 13.9
2016-May-05 21:24 091 14.4
2016-May-05 21:09 091 14.4
2016-May-05 20:53 090 0 gusting 3 15.0
2016-May-05 20:39 090 0 gusting 2 15.6
2016-May-05 20:23 090 15.6
2016-May-05 20:09 090 16.1
2016-May-05 19:54 086 16.1
2016-May-05 19:38 086 16.7
2016-May-05 19:23 086 0 gusting 3 17.2
2016-May-05 19:08 085 17.2
2016-May-05 18:52 089 17.8
2016-May-05 18:38 067 0 gusting 4 18.3
2016-May-05 18:25 090 18.9
2016-May-05 18:08 061 0 gusting 7 19.4
2016-May-05 17:52 069 1 gusting 6 19.4
2016-May-05 17:37 065 2 gusting 8 19.4
2016-May-05 17:22 081 3 gusting 7 19.4
2016-May-05 17:07 078 3 gusting 8 19.4
2016-May-05 16:52 080 3 gusting 8 19.4
2016-May-05 16:38 050 1 gusting 10 19.4
2016-May-05 16:22 078 1 gusting 8 19.4
2016-May-05 16:06 084 3 gusting 8 18.9
2016-May-05 15:51 069 3 gusting 7 18.9
2016-May-05 15:36 073 5 gusting 12 18.3
2016-May-05 15:21 059 0 gusting 8 18.3
2016-May-05 15:06 081 2 gusting 6 18.3
2016-May-05 14:51 061 2 gusting 10 18.3
2016-May-05 14:36 037 4 gusting 10 18.3
2016-May-05 14:21 037 3 gusting 9 18.3
2016-May-05 14:15 051 3 gusting 8 17.8
2016-May-05 00:43 095 14.4
2016-May-05 00:28 095 14.4
2016-May-05 00:13 095 14.4
2016-May-04 23:58 095 15.0
2016-May-04 23:43 095 15.0
2016-May-04 23:28 095 15.0
2016-May-04 23:13 095 15.0
2016-May-04 23:00 095 15.6
2016-May-04 22:42 095 15.6
2016-May-04 22:28 096 16.1
2016-May-04 22:12 096 16.1
2016-May-04 21:57 096 16.1
2016-May-04 21:42 096 16.1
2016-May-04 21:27 096 16.7
2016-May-04 21:12 096 16.7
2016-May-04 20:57 096 16.7
2016-May-04 20:42 096 16.7
2016-May-04 20:27 100 0 gusting 2 16.7
2016-May-04 20:12 100 17.2